STARLINK-34891

Last updated on Tue Sep 16 2025 00:02:07 GMT+0000 (Coordinated Universal Time)

1 65373U 25190Y 25258.54928092 -.00623861 00000+0 -75049-2 0 9996 2 65373 53.1597 265.0015 0002251 30.6828 329.4318 15.62203378 2371
UTC large
Height (km)
Speed (km/s)
/
Latitude / Longitude
Inclination (degrees)
Orbital Period (minutes)
Azimuth
Elevation
Range (km)
Doppler Factor

Next 0 passes for location: London (51.5072 / 0.1276)

Sorry there are no passes over London.